Tracking 22458 objects as of 2-Mar-2021
HD Live streaming from Space Station
objects crossing your sky now

CZ-4C DEB

Track CZ-4C DEB now!
10-day predictions


NORAD ID: 44212
Int'l Code: 2019-024F
Perigee: 499.8 km
Apogee: 514.6 km
Inclination: 97.5 °
Period: 94.6 minutes
Semi major axis: 6878 km
RCS: Unknown
Launch date: April 29, 2019
Source: People's Republic of China (PRC)
Launch site: Taiyaun Space Center, China (TSC)

Note: This is SATELLITE DEBRIS
aabbcc
Your satellite tracking list
Your tracking list is empty




NASA's NSSDC Master Catalog

Two Line Element Set (TLE):
1 44212U 19024F   21060.48772791  .00002251  00000-0  10179-3 0  9994
2 44212  97.4610  72.4535 0010717 126.2352 233.9876 15.21921652101953
Source of the keplerian elements: AFSPC